COSMOS 2251 DEB, 36366

Orbit data source: Space-Track

COSMOS 2251 DEB, 36366 is space debris in LEO originally from a launch on Wed, 16 Jun 1993 UTC launched from the Plesetsk Missile And Space Complex (PKMTR). The debris from Iridium 33, an American commercial communications satellite, has been tracked extensively since its accidental collision with the defunct Russian satellite Cosmos 2251 in 2009. This event, occurring at high speed in low Earth orbit (LEO), generated thousands of pieces of space debris, significantly increasing the risk of further collisions. The Iridium 33 debris cloud has impacted space traffic management and orbital debris mitigation strategies, making it a subject of ongoing study in space situational awareness.

Loading next visibility...
Identifier
36366, 1993-036AYT
Orbit
LEO
Country
Flag of CISCIS
Related business
Manufacturer
Unknown
Mission
Spacecraft
Bus & Motor
Unknown
Mass
Unknown
Launch date (UTC)
1993-06-16 (33 years ago)
Launch vehicle
Unknown
Launch site
Plesetsk Missile And Space Complex (PKMTR)
Object type
Payload
Rocket body
Debris
Shape & HBR
Unknown shape, 0.1 m
Radar Cross Section
Small (<0.1 m²)

Expand to show TLE details & history
Last TLE update: 1 day ago

TLE from 1 day ago
0 COSMOS 2251 DEB
1 36366U 93036AYT 26120.45953465  .00003920  00000-0  13352-2 0  9997
2 36366  74.0670  19.5884 0085186  15.1639 345.2036 14.34776992882775
Epoch: 2026-04-30T11:01Z
TLE epoch observation values (Epoch: 2026-04-30T11:01:43.793Z)
Latitude
-0.00004°
Longitude
-4.24992°
Altitude
719.523 km
Speed
7.527 km/s
True Right ascension
01h 18m 21s
True Declination
0° 00' 00"
Sunlit
Object was in daylight at epoch
Visualization orbit readout
Latitude
Unknown
Longitude
Unknown
Altitude
Unknown
Speed
Unknown
Apparent Right ascension
Unknown
Apparent Declination
Unknown
Sunlit
N/A
Visualization observer readout
Local Sidereal Time
18:31:56
Azimuth
Unknown
Elevation
Unknown
Doppler factor
Unknown
Orbital elements
Apogee altitude
834.351 km
Perigee altitude
712.509 km
Semi-major axis
7,151.567 km
Eccentricity
0.00852
Inclination
74.067°
RAAN
19.5884°
Arg. of periapsis
15.1639°
True anomaly
344.95171°
Mean anomaly
345.2036°
Eccentric anomaly
345.07792°
Mean motion
3.58873 °/min
Orbital period
100.31 mins
BSTAR
0.0013352
Loading maneuver chart data...
Computing Atmospheric mass density...

Documentation

Showing up to 5 results
|